Flag for U.S.A. Weather past 2 weeks in Sioux Falls, South Dakota, U.S.A.

Now
30 °F

Overcast.


Feels Like: 21 °F
Forecast: 28 / 50 °F
Wind: 10 mph from Southeast

Location: Foss Field

Current Time: Mar 28, 2015 at 6:19:37 AM

Latest Report: Mar 28, 2015 at 5:56 AM


Visibility: 10 mi

Pressure: 30.14 "Hg

Humidity: 82%

Dew point: 25 °F

Location of Sioux FallsLocation

Historic Weather in Sioux Falls — Graph

°F

Sioux Falls temperature yesterday

Maximum temperature yesterday: 36 °F (at 3:56 PM)
Minimum temperature yesterday: 14 °F (at 6:56 AM)
Average temperature yesterday: 27 °F

Past Weeks' High & Low Weather Summary

 TemperatureHumidityPressure
High77 °F (Mar 15, 3:56 PM)100% (Mar 24, 11:56 PM)30.60 "Hg (Mar 24, 11:56 PM)
Low14 °F (Mar 27, 6:56 AM)19% (Mar 20, 4:56 PM)29.74 "Hg (Mar 16, 8:56 AM)
Average41 °F57%30.14 "Hg
* Reported Mar 13 4:56 AM — Mar 28 4:56 AM, Sioux Falls, Weather by CustomWeather, © 2015

Note: Actual official high and low records may vary slightly from our data, if they occured in-between our weather recording intervals... More about our weather records

Advertising

Sioux Falls weather history for previous 24 hours

 ConditionsComfort  
Time TempWeatherWind HumidityBarometerVisibility
4:56 AM
Sat, Mar 28
30 °FOvercast.10 mph79%30.14 "Hg10 mi
3:56 AM30 °FOvercast.14 mph79%30.13 "Hg10 mi
2:56 AM30 °FOvercast.10 mph79%30.13 "Hg10 mi
1:56 AM30 °FOvercast.14 mph75%30.13 "Hg10 mi
12:56 AM30 °FOvercast.9 mph75%30.12 "Hg10 mi
11:56 PM
Fri, Mar 27
31 °FOvercast.13 mph76%30.13 "Hg10 mi
10:56 PM32 °FOvercast.13 mph66%30.13 "Hg10 mi
9:56 PM33 °FOvercast.13 mph63%30.11 "Hg10 mi
8:56 PM33 °FOvercast.14 mph63%30.10 "Hg10 mi
7:56 PM33 °FOvercast.12 mph61%30.11 "Hg10 mi
6:56 PM33 °FOvercast.12 mph61%30.12 "Hg10 mi
5:56 PM34 °FLight snow. Overcast.9 mph56%30.14 "Hg9 mi
4:56 PM36 °FMostly cloudy.9 mph44%30.16 "Hg10 mi
3:56 PM36 °FOvercast.8 mph35%30.16 "Hg10 mi
2:56 PM35 °FOvercast.7 mph34%30.18 "Hg10 mi
1:56 PM34 °FMostly cloudy.8 mph35%30.22 "Hg10 mi
12:56 PM32 °FOvercast.7 mph36%30.25 "Hg10 mi
11:56 AM30 °FOvercast.8 mph41%30.27 "Hg10 mi
10:56 AM28 °FOvercast.7 mph45%30.30 "Hg10 mi
9:56 AM25 °FOvercast.No wind66%30.32 "Hg10 mi
8:56 AM22 °FMore clouds than sun.3 mph72%30.34 "Hg10 mi
7:56 AM15 °FPassing clouds.No wind83%30.34 "Hg10 mi
6:56 AM14 °FPassing clouds.3 mph80%30.34 "Hg10 mi
Weather by CustomWeather, © 2015

See weather overviewHow to use our weather pages